ONEWEB-0123 (47269 NORAD) Tracking and Keplerian Element Data

This shows tracking and keplerian element data for the satellite.

Feedback or suggestion? Click here.




ElementValue
Catalog47269
NameONEWEB-0123
Epoch Orbit1620
Epoch Day99.91667824
Epoch Year2021
RAAN7.2922
Inclination87.9596
Eccentricity0.0001297
Argument of Perigee107.0106
Mean Anonmoly134.5566
Mean Motion13.3079518
Decay Rate1.3E-07
L11 47269U 20100M 21099.91667824 .00000013 00000-0 00000+0 0 9998
L22 47269 87.9596 7.2922 0001297 107.0106 134.5566 13.30795180 16206

Live tracking and technical data element details for ONEWEB-0123 (NORAD 47269). ONEWEB-0123 can be tracked NOW for your location showing map with azimuth and elevation plus other details from your city location.

Track the satellite on the map from your city or location and see movement details for azimuth, elevation, latitude, longitude, range, height, and movement on the map or in text.







IsCatalogInMostPopularTable: catalog: 47269, numindb: 34
Update: records affected: 1



GetName: 47269 ONEWEB-0123

Hit Count: updated at: Sat, 10 Apr 2021 18:27:51 GMT